Погода в Тулучи

Россия / Хабаровский край     49°52′59″N   139°57′19″E
темп.,
°C
ветер,
м/с
пор.,
м/с
влажн.,
%
обл.,
%
осадки,
мм/ч
давл.,
гПа
погр.,
м
6 марта, сб
сб601:00−21с229699 0.0 102043
04:00−26сз129665 0.1 102119
07:00−28зсз11930 0.0 102319
10:00−20зсз511720 0.0 10231169
13:00−17зсз61167100 0.0 10221499
16:00−17зсз61169100 0.1 10211280
19:00−22з3108335 0.0 1022372
22:00−25зюз238918 0.0 102341
7 марта, вс
вс701:00−26зюз22920 0.0 102220
04:00−25зюз22930 0.0 102320
07:00−26з22930 0.0 102320
10:00−17зюз24760 0.0 1022349
13:00−11з26610 0.0 1020821
16:00−11з35678 0.0 1019994
19:00−17зсз238463 0.0 101941
22:00−21з129134 0.0 102020
8 марта, пн
пн801:00−22з22930 0.0 102020
04:00−22з22930 0.0 102020
07:00−22з22930 0.0 102120
10:00−13зюз23790 0.0 1021298
13:00−7з37620 0.0 1019896
16:00−6з39641 0.0 1018898
19:00−12зюз228410 0.0 101845
22:00−14зюз23885 0.0 101877
9 марта, вт
вт901:00−15юз228791 0.0 101644
04:00−14зюз238895 0.0 101683
07:00−13зюз2387100 0.0 101484
10:00−7ююз377697 0.0 1011641
13:00−2юз3872100 0.0 10091186
16:00−1юз3775100 0.1 10071109
19:00−5в1193100 0.1 100721
22:00−5с2297100 1.6 100757
10 марта, ср
ср1001:00−7ссв2696100 1.0 1007377
04:00−9с31194100 1.4 1009823
07:00−10сз31292100 0.1 1013746
10:00−7ссз3975100 0.1 1017997
13:00−4ссз486993 0.0 10181273
16:00−3ссз376596 0.1 10181509
19:00−9сз018699 0.1 102021
22:00−13зюз119183 0.1 102221